Theta_e
341 339 338 334 333 335 335 338 346 349 350 350 347 343 339 338 338 338 339 344 343 343 347 351 358 360 356 355 354 353 352 350 350 348 347 346 345 343 342 341 339 336 333
335 335 335 331 334 336 333 330 331 333 335 333 333 332 332 333 333 335 335 338 342 343 347 348 353 359 356 357 355 354 352 350 351 349 348 347 346 345 344 344 342 337 335
335 336 333 333 335 335 333 333 332 332 330 330 330 329 330 330 331 332 338 339 341 343 347 350 352 357 357 356 352 353 351 351 351 350 348 347 347 345 345 345 344 338 335
336 336 333 333 334 332 331 330 330 329 329 329 330 330 329 329 329 337 343 345 346 347 349 352 353 354 356 349 350 352 353 351 349 347 346 348 347 346 346 343 340 337 334
334 337 336 336 335 332 329 327 327 328 327 327 328 328 328 328 328 341 341 342 345 348 350 345 348 351 352 351 350 349 347 346 345 346 347 347 347 344 341 339 339 336 334
332 334 334 335 334 332 331 330 327 327 325 323 324 325 327 327 336 343 339 337 340 342 344 346 348 348 348 347 346 345 345 345 346 346 345 343 340 338 337 338 337 334 330
329 331 329 332 334 332 332 333 329 326 320 323 318 318 322 325 329 340 338 335 336 337 340 341 342 346 345 346 345 344 345 344 343 341 339 338 338 337 335 333 331 328 325
328 329 331 329 330 326 329 328 327 320 319 320 315 314 314 320 326 332 334 333 332 334 334 335 338 344 345 344 344 343 342 342 341 339 336 334 333 331 329 327 326 324 323
323 326 328 329 329 327 321 325 325 324 315 317 320 317 311 312 319 325 330 328 329 329 330 332 336 341 344 343 341 340 339 339 338 336 332 330 329 328 326 324 323 322 321
319 320 321 323 326 326 325 324 325 325 324 316 320 321 320 317 310 314 323 328 329 327 327 331 333 336 339 342 338 337 336 335 333 332 330 328 326 325 323 321 319 318 317
317 316 318 318 319 319 324 328 328 327 324 323 320 319 318 317 316 313 313 320 326 327 325 328 329 331 332 332 331 329 328 327 327 326 325 323 322 320 319 318 317 317 318
313 315 316 317 317 318 319 324 327 324 325 321 322 321 320 314 314 312 311 315 313 321 323 324 326 328 328 328 327 325 323 321 320 319 318 317 317 317 317 316 316 317 316
310 312 315 315 315 317 319 321 323 326 323 324 324 322 324 320 320 316 314 312 314 320 319 322 322 324 326 325 323 322 319 317 315 314 314 314 313 313 313 313 313 313 313
309 311 311 312 313 313 315 319 320 322 322 324 320 323 325 323 324 316 316 312 311 315 316 317 320 321 323 322 321 319 315 314 313 312 311 311 311 311 310 310 310 311 311
309 310 310 310 310 311 312 315 316 315 316 317 317 318 315 318 320 321 323 323 317 309 310 316 316 319 317 318 317 316 314 314 312 311 310 309 309 308 308 309 308 309 309
309 308 306 307 309 309 309 311 313 317 315 313 314 312 312 312 314 315 318 319 322 318 312 317 318 315 315 315 315 314 313 313 311 309 309 308 307 307 307 306 306 307 307
307 306 306 306 306 307 309 308 309 311 311 311 312 313 313 314 313 315 315 317 316 319 314 313 317 314 312 312 314 313 314 313 311 309 308 307 306 306 306 306 305 305 305
305 305 306 307 306 307 308 308 306 307 308 310 312 311 311 311 314 315 314 315 315 317 314 312 312 312 311 311 311 311 312 312 310 309 307 306 306 305 305 305 304 303 303
304 304 304 307 305 307 306 307 307 308 307 307 308 308 309 311 312 313 314 313 314 316 316 314 311 312 309 309 308 310 310 312 310 309 306 306 305 305 305 305 304 303 302
304 304 304 305 305 305 306 308 308 307 307 308 309 309 309 310 310 313 314 315 316 315 315 317 312 309 307 308 309 307 307 310 308 309 306 304 305 304 304 304 304 303 302
305 305 304 304 307 305 305 306 306 308 307 307 309 308 310 310 311 313 315 315 314 314 315 312 310 308 307 305 305 307 307 306 306 310 307 304 302 302 304 307 305 302 300
305 305 305 304 304 305 304 304 306 306 307 306 306 308 310 309 310 310 311 312 314 314 314 310 310 308 308 306 308 308 305 302 300 309 305 303 304 305 307 306 302 301 300
306 305 305 304 304 308 302 302 304 306 307 306 307 308 307 309 310 311 310 310 310 310 313 315 316 316 310 310 308 307 305 304 303 305 305 301 304 305 303 301 302 301 300
305 304 305 306 305 308 302 300 302 308 308 308 309 310 308 309 311 312 312 312 314 317 315 318 319 319 317 315 314 312 307 306 305 306 306 299 306 303 302 302 300 298 297
305 304 304 306 306 305 301 299 301 304 305 306 306 309 310 309 304 302 309 308 312 314 309 307 305 302 302 304 310 310 304 302 301 302 306 308 304 303 302 301 301 299 297
305 304 304 306 305 305 300 299 301 304 303 304 306 306 303 307 300 300 309 308 308 309 310 310 313 308 310 308 306 312 306 304 302 301 307 306 304 305 300 303 303 302 303
Wind_Speed
1 1 1 1 2 3 5 5 4 4 4 4 4 5 5 5 5 4 5 6 9 11 11 13 13 16 18 16 16 15 16 17 16 16 17 16 16 17 17 15 14 11 5
1 1 1 1 1 1 2 3 4 4 4 4 3 4 5 5 6 6 5 7 5 8 9 10 12 13 13 13 11 13 14 13 15 16 17 18 17 18 18 19 18 12 10
3 3 2 1 1 2 3 3 3 3 4 4 5 4 5 5 5 6 6 6 5 5 4 8 10 8 9 10 7 9 10 11 13 16 18 18 17 18 19 19 11 14 12
4 3 4 4 4 3 4 4 5 4 5 5 5 5 5 6 6 6 4 5 4 4 3 6 3 4 8 5 5 7 7 6 7 10 11 13 16 16 14 4 12 13 12
1 1 1 1 1 2 3 4 5 5 5 6 6 6 7 7 5 2 5 5 5 3 2 10 12 11 12 10 9 9 7 4 4 4 5 3 5 11 14 13 15 11 9
5 4 3 3 4 3 2 0 1 2 4 6 6 7 8 5 3 1 3 4 5 6 6 5 4 8 10 12 11 11 10 10 12 15 16 16 17 14 12 11 13 13 9
8 7 7 5 6 6 7 6 5 5 3 1 2 7 8 2 4 2 3 4 5 6 7 6 4 3 7 12 12 15 16 16 17 17 17 15 16 19 18 15 13 10 7
9 9 10 8 7 6 7 8 7 6 5 3 2 1 2 6 2 2 3 5 7 6 7 6 6 5 5 6 11 16 15 16 17 18 19 19 18 17 15 12 9 7 5
10 10 10 10 10 8 8 8 7 7 8 5 7 5 2 6 6 2 4 4 6 6 6 6 6 5 5 8 9 14 16 17 19 18 17 16 15 14 12 10 8 5 4
12 11 10 11 12 10 10 11 8 8 7 7 3 7 7 2 3 10 4 3 5 6 5 5 5 6 5 5 10 14 16 16 17 17 15 13 13 11 9 8 7 5 5
13 14 12 12 11 10 12 12 11 9 6 7 7 5 6 4 4 6 10 4 4 6 4 4 3 3 7 8 8 14 19 19 17 16 14 12 11 11 9 8 7 6 6
12 14 14 11 11 12 13 12 13 12 9 9 9 9 8 4 6 4 4 5 1 3 3 2 3 3 5 6 12 18 18 17 16 15 15 13 12 11 10 9 9 8 8
12 13 13 12 10 11 12 12 11 11 11 8 10 10 9 8 6 5 6 2 3 4 2 2 1 1 5 6 8 16 18 17 15 14 14 13 12 10 11 11 11 10 10
11 13 13 14 13 12 11 11 9 9 8 8 10 8 6 8 8 7 8 5 3 3 3 4 1 1 5 8 12 17 12 16 14 13 14 13 12 11 10 11 10 11 11
11 13 13 12 12 13 12 11 8 8 4 4 5 4 3 3 4 3 4 5 7 5 3 5 3 3 5 6 9 9 9 13 14 12 13 13 12 11 11 10 12 12 10
13 12 12 12 12 12 10 10 9 9 7 4 3 4 3 6 6 7 4 2 4 4 3 3 3 3 6 6 8 9 9 11 12 11 11 13 13 12 12 11 11 11 11
13 13 12 11 11 9 10 7 7 7 6 5 5 6 8 7 6 8 7 7 7 4 4 3 2 7 5 9 8 8 7 6 9 12 11 12 13 12 11 11 12 12 13
12 12 13 12 11 12 8 9 9 8 7 10 9 7 8 7 9 9 8 10 9 9 7 9 4 2 4 7 8 9 7 6 7 11 11 11 13 12 12 13 13 13 13
12 12 12 13 10 10 9 8 7 7 8 7 8 8 8 9 10 9 9 8 10 9 10 7 5 3 2 6 8 7 8 7 7 12 11 12 14 13 13 16 15 14 13
13 11 11 10 11 9 10 10 9 8 8 9 8 8 8 9 10 11 10 10 10 10 10 7 7 7 5 5 8 9 8 6 6 7 8 10 11 10 9 9 14 15 14
11 11 10 10 11 8 7 9 8 8 7 8 7 7 7 8 11 9 6 8 8 8 9 8 8 7 6 6 10 6 7 6 4 3 4 3 3 1 1 6 9 13 14
11 10 9 9 9 6 7 10 10 5 7 6 6 6 6 7 9 8 7 4 7 9 11 7 10 11 12 11 8 8 8 5 3 2 2 2 1 2 6 8 8 9 12
9 9 9 8 9 10 9 10 10 6 6 5 5 4 5 4 4 6 7 6 6 10 9 10 13 13 12 13 11 10 9 6 3 4 2 2 1 6 6 7 13 12 10
9 7 7 8 8 8 10 10 9 9 7 8 8 9 6 5 5 4 5 6 8 13 11 8 7 7 8 12 12 12 10 7 5 4 1 2 3 5 4 6 10 13 13
7 7 6 6 8 6 9 9 8 6 7 7 5 5 7 6 5 4 4 4 8 7 7 9 11 11 13 11 12 12 8 8 4 3 4 4 5 4 4 5 4 5 10
7 5 6 6 6 6 9 9 9 5 6 5 6 7 5 6 7 7 3 3 9 8 9 9 11 12 12 11 10 9 9 7 5 3 5 3 4 2 3 2 6 7 6
Wind_Direction
99 156 187 275 319 332 340 334 327 326 290 268 260 273 284 290 293 282 288 285 286 288 262 247 238 209 214 210 216 219 219 215 214 215 218 224 223 227 231 231 227 216 205
190 202 195 187 129 32 12 354 16 0 349 333 311 310 301 302 297 291 296 297 288 292 263 245 243 219 207 204 210 213 216 215 218 223 225 224 223 230 232 235 221 181 179
347 328 323 317 13 59 80 82 48 39 22 352 353 347 329 328 296 298 289 291 287 204 314 271 249 244 211 194 197 217 218 217 224 229 232 235 231 232 234 238 220 165 175
17 13 358 3 14 31 44 40 39 46 21 3 358 347 338 319 314 299 314 317 301 297 162 33 39 200 164 164 220 234 228 239 251 251 252 236 234 236 242 276 144 159 171
239 178 151 117 59 39 52 46 41 26 44 27 354 341 342 324 307 346 30 27 27 22 56 72 65 77 99 104 100 87 69 50 22 328 292 253 121 106 122 136 153 167 150
291 273 224 205 207 205 226 98 59 39 32 18 7 7 341 333 340 70 61 50 44 40 48 38 90 84 83 97 96 84 74 71 72 79 93 101 106 109 113 126 117 113 117
305 297 288 255 244 252 265 259 275 275 251 307 47 11 329 279 336 23 34 48 35 48 46 51 48 85 101 91 90 91 85 85 88 90 91 94 96 92 93 97 103 110 121
320 303 297 290 272 267 261 261 257 274 277 260 263 200 350 301 132 349 73 38 33 30 41 45 62 84 111 96 99 97 95 96 95 94 91 90 91 94 96 98 97 96 97
315 308 294 291 292 287 276 268 264 253 272 274 242 240 169 225 329 161 77 87 66 46 30 24 49 79 101 111 114 106 98 98 95 91 93 95 97 97 99 96 89 81 62
320 316 305 296 288 279 272 269 256 242 244 264 259 235 238 153 156 270 185 106 89 77 25 10 17 39 55 75 88 88 101 104 102 98 91 89 90 88 84 81 69 46 24
312 311 305 300 292 281 273 259 257 238 232 249 245 239 230 196 191 252 256 232 158 78 58 350 19 48 69 71 75 81 81 84 84 85 81 73 68 65 60 59 47 25 14
306 305 305 305 301 293 279 270 262 248 236 235 235 235 225 187 199 173 258 281 354 92 96 35 1 61 95 99 102 99 93 91 89 88 81 72 63 53 46 39 31 18 9
297 297 301 303 302 300 286 272 261 246 239 225 232 230 226 211 199 197 211 192 249 195 128 91 24 92 103 103 107 104 100 93 91 88 84 76 68 57 47 38 29 17 12
295 300 288 286 289 295 298 279 257 248 229 239 234 233 211 217 215 192 213 166 212 214 151 128 83 119 114 116 120 109 107 108 103 95 87 78 69 60 53 43 33 23 14
290 290 294 289 289 285 282 283 256 250 217 225 205 229 259 211 252 220 254 218 201 196 166 161 132 89 86 105 113 110 108 107 102 96 92 84 71 59 53 43 30 20 18
293 290 289 288 291 284 282 273 269 239 199 192 202 182 248 261 255 250 249 267 261 237 220 157 120 122 119 108 112 105 115 111 95 93 92 88 80 66 55 43 32 21 17
288 289 286 286 283 278 278 256 247 247 224 201 206 216 214 223 233 245 226 229 233 237 203 77 93 130 116 125 123 125 119 118 102 94 88 86 79 68 52 45 39 27 23
281 276 281 277 279 283 277 270 244 230 226 228 213 222 237 224 227 236 230 222 219 211 220 159 135 144 126 140 138 135 128 111 117 94 89 83 78 65 51 44 39 32 27
273 272 272 274 271 274 272 262 244 236 213 201 211 206 222 234 231 232 225 221 209 216 216 172 144 128 105 141 134 140 140 132 104 107 99 86 78 71 63 52 40 36 30
275 267 261 261 260 254 258 264 242 222 219 222 216 209 222 235 237 235 226 219 213 207 210 195 163 145 151 153 166 155 151 133 114 98 74 68 64 60 54 49 34 35 29
275 266 261 251 259 250 245 245 251 249 238 222 209 207 217 228 250 252 219 217 202 197 201 168 165 158 158 163 184 160 145 123 101 121 98 64 64 351 7 73 36 33 25
279 269 255 244 248 237 240 236 236 242 230 221 217 209 192 219 251 202 225 206 212 196 204 170 185 170 180 180 155 157 138 129 133 163 107 77 0 34 37 23 8 30 19
285 279 257 239 237 240 208 213 219 235 238 195 203 181 175 213 181 206 186 167 230 207 199 194 188 186 173 172 149 153 148 136 134 138 111 100 289 55 46 43 33 29 15
295 286 282 240 234 233 212 210 207 220 201 195 199 185 187 206 187 192 189 222 233 201 196 212 218 175 157 164 168 154 143 112 92 114 98 137 156 96 65 54 47 42 39
300 294 282 245 231 225 207 205 192 190 203 206 196 186 191 201 166 194 207 222 217 154 94 85 86 84 101 130 145 127 139 140 124 147 201 220 129 126 84 43 33 87 65
298 299 295 266 221 222 193 190 175 175 173 168 167 176 192 238 157 185 176 227 137 129 123 119 115 103 125 120 127 139 144 144 123 126 200 182 159 178 149 73 39 25 45